Torna al catalogo

Sitro-AIS-60

AttivoComunicazioniSSO
NORAD 67260·PAYLOAD·🇷🇺 Russia

Lanciato Dec 28, 2025 da Vostochny Cosmodrome

Loading…

Prossimi Passaggi (prossime 24 ore)

TLE

AggiornatoSource: Space-Track

Epoca: Sep 14, 2026, 15:10 UTC

1 67260U 25313N   26257.63213456  .00005551  00000-0  23733-3 0  9994
2 67260  97.3872 330.7165 0014534  54.2342 306.0243 15.23150553 39551

Traccia Sitro-AIS-60 in tempo reale con AllMySat

Download on the App Store